Current weather by "City, St" or "zip code"  
 
Advertise Here

Current Conditions: Grand Island, Central Nebraska Regional Airport, NE

A Few Clouds


23.0 F

Last Updated on Jan 22 2021, 3:53 am CST
Humidity: 78%
Wind Speed: N 9.2 mph
Barometer 30.16 in
Dewpoint: 17.1 F
Visibility: 10.00 mi
Precip: --
Heat Index: NA
Wind Chill: 13 F
Current conditions at:

Grand Island, Central Nebraska Regional Airport, NE (KGRI)

Lat: 40.95833 Lon: 98.3125

Local Radar Image active severe weather and emergency alerts image image weather storm and storm spotter reports image weather observation monitoring service image
Local
Radar
Active
Alerts
Storm Reports Obs
Monitoring

Sign-up For Email & Text Message Weather Alert Notification Services


Advertise Here

Observation History for Grand Island, Central Nebraska Regional Airport, NE


Time Wind
(mph)
Vis
(mi)
Weather Precip (in) Temperature (F) Relative
Humidity
Wind
Chill
(F)
Heat
Index
(F)
Pressure
Air Dwpt altimeter
(in)
sea level
(mb)
Rmks
3:53 am CST N 9.2 10.00 A Few Clouds -- 23.0 17.1 78% 13 NA 30.16 1023.2
2:53 am CST N 5.8 10.00 Fair -- 24.0 17.1 75% 17 NA 30.16 1023.1
1:53 am CST N 6.9 10.00 A Few Clouds -- 24.0 17.1 75% 16 NA 30.14 1022.5
12:53 am CST N 6.9 10.00 Fair -- 24.0 16.0 71% 16 NA 30.14 1022.6
11:53 pm CST N 8.1 10.00 Fair -- 26.0 17.1 69% 17 NA 30.14 1022.5
10:53 pm CST N 8.1 10.00 A Few Clouds -- 26.0 15.1 63% 17 NA 30.12 1022.2
9:53 pm CST N 9.2 10.00 A Few Clouds -- 28.0 15.1 58% 19 NA 30.11 1021.9
8:53 pm CST N 4.6 10.00 Fair -- 30.0 15.1 54% 25 NA 30.09 1021.3
7:53 pm CST N 5.8 10.00 Overcast -- 33.0 16.0 49% 28 NA 30.07 1021.0
6:53 pm CST N 6.9 10.00 Overcast -- 34.0 17.1 50% 28 NA 30.06 1020.4
5:53 pm CST N 8.1 10.00 Overcast -- 40.0 16.0 38% 35 NA 30.03 1019.3
4:53 pm CST N 12.7 10.00 Mostly Cloudy -- 43.0 16.0 34% 36 NA 30.01 1018.0
3:53 pm CST N 17.3 10.00 Fair -- 47.0 15.1 28% 40 NA 29.99 1017.2
2:53 pm CST N 16.1 G 29.9 10.00 A Few Clouds -- 47.0 15.1 28% 41 NA 29.97 1016.7
1:53 pm CST N 18.4 G 28.8 10.00 Fair -- 51.0 16.0 25% 45 NA 29.96 1016.2
12:53 pm CST N 20.7 10.00 Fair and Breezy -- 49.0 16.0 27% 42 NA 29.98 1016.8
11:53 am CST N 17.3 G 27.6 10.00 Fair -- 44.0 18.0 35% 36 NA 29.99 1017.5
10:53 am CST N 15.0 10.00 Fair -- 40.0 21.0 47% 32 NA 29.99 1017.5
9:53 am CST W 8.1 10.00 Fair -- 36.0 21.0 55% 30 NA 29.97 1016.8
8:53 am CST W 8.1 10.00 Fair -- 30.0 19.0 64% 22 NA 29.95 1016.5
7:53 am CST W 6.9 10.00 Fair -- 22.0 15.1 75% 14 NA 29.94 1016.2
6:53 am CST W 6.9 10.00 Fair -- 22.0 15.1 75% 14 NA 29.93 1015.9
5:53 am CST W 4.6 10.00 Fair -- 22.0 15.1 75% 16 NA 29.93 1015.6
4:53 am CST W 5.8 10.00 Fair -- 26.0 17.1 69% 19 NA 29.93 1015.0

Regional Weather Observation


Ord, Evelyn Sharp Field Airport, NE (KODX)

Partly Cloudy
19.0 F

Aurora, Aurora Municipal Airport, NE (KAUH)

Fair
24.0 F

Albion Municipal Airport, NE (KBVN)

Overcast
20.0 F

Hastings, Hastings Municipal Airport, NE (KHSI)

Overcast
25.0 F

Kearney, Kearney Municipal Airport, NE (KEAR)

Mostly Cloudy
25.0 F

York, York Municipal Airport, NE (KJYR)

Mostly Cloudy
23.0 F